Date,TemperatureHighF,TemperatureAvgF,TemperatureLowF,DewpointHighF,DewpointAvgF,DewpointLowF,HumidityHigh,HumidityAvg,HumidityLow,PressureMaxIn,PressureMinIn,WindSpeedMaxMPH,WindSpeedAvgMPH,GustSpeedMaxMPH,PrecipitationSumIn
2013-8-1,76,61,67,70,42,-100,94,75,78,30.04,29.86,18,-138,18,0.04
2013-8-2,78,52,70,70,18,-100,91,58,70,29.88,29.76,25,-290,25,0.00
2013-8-3,75,57,70,69,33,-100,100,70,77,29.89,29.80,27,-187,27,0.01
2013-8-4,80,53,63,66,17,-100,84,48,46,29.89,29.78,24,-260,24,0.00
2013-8-5,79,65,58,59,46,-100,85,59,34,30.02,29.89,24,-39,24,0.00
2013-8-6,74,63,58,66,49,-100,91,70,56,30.14,30.02,11,-59,11,0.00
2013-8-7,75,66,59,66,55,-100,95,79,59,30.17,30.10,17,-43,17,0.00
2013-8-8,74,56,68,71,32,-100,95,71,88,30.11,30.02,20,-209,20,0.02
2013-8-9,72,40,70,68,-23,-100,91,22,1,30.05,29.78,27,-431,27,0.15
2013-8-10,79,57,68,69,22,-100,81,56,1,30.01,29.80,21,-216,21,0.00
2013-8-11,74,64,60,64,49,-100,88,69,58,30.09,30.00,17,-60,17,0.00
2013-8-12,74,53,66,68,24,-100,88,60,60,30.04,29.92,12,-238,12,0.05
2013-8-13,71,35,64,32,-89,-100,24,2,1,29.92,29.68,12,-488,12,0.19
2013-8-14,75,52,61,57,14,-100,79,47,1,29.97,29.68,33,-228,33,0.00
2013-8-15,73,62,57,62,48,-100,85,69,43,30.12,29.97,22,-56,22,0.00
2013-8-16,73,64,62,66,53,-100,87,78,74,30.20,30.10,13,-58,13,0.00
2013-8-17,76,65,62,67,52,-100,88,74,66,30.27,30.19,8,-61,8,0.00
2013-8-18,74,52,60,68,26,-100,88,64,76,30.26,30.09,14,-225,14,0.02
2013-8-19,74,53,61,67,25,-100,90,64,75,30.10,29.98,20,-234,20,0.00
2013-8-20,80,65,66,68,49,-100,91,73,53,30.10,29.99,19,-91,19,0.00
2013-8-21,77,66,67,71,54,-100,91,80,79,30.14,30.03,14,-76,14,0.00
2013-8-22,74,51,68,67,-2,-100,91,30,1,30.04,29.84,30,-264,30,0.04
2013-8-23,82,51,65,66,11,-100,86,48,1,30.08,29.81,17,-303,17,0.00
2013-8-24,77,62,59,61,43,-100,88,63,35,30.32,30.08,17,-81,17,0.00
2013-8-25,75,71,66,66,62,60,86,75,70,30.36,29.99,16,7,16,0.00